WD9EKA Weather Reports


Display with metric or nautical units.
time (UTC)temp
F
wind
direction
speed
MPH
gust
MPH
rain 1hr
in
rain 24hr
in
rain mn
in
humidity
%
barometer
mb
20260504060113 56 230 4.0 6.0 0.00 0.00 0.00 69 1004.7
20260504045656 57 224 0.0 0.0 0.00 0.00 0.00 64 1005.4
20260504044616 57 220 2.0 3.0 0.00 0.00 0.00 64 1005.5
20260504043533 57 196 0.0 1.0 0.00 0.00 0.00 64 1005.1
20260504043016 57 199 0.0 0.0 0.00 0.00 0.00 65 1005.0
20260504041934 58 201 2.0 2.0 0.00 0.00 0.00 63 1005.2
20260504041416 58 209 1.0 2.0 0.00 0.00 0.00 63 1005.1
20260504040857 58 187 1.0 2.0 0.00 0.00 0.00 63 1005.2
20260504040333 58 213 2.0 2.0 0.00 0.00 0.00 63 1005.5
20260504035256 58 211 0.0 1.0 0.00 0.00 0.00 62 1005.4
20260504034734 58 201 0.0 1.0 0.00 0.00 0.00 63 1005.7
20260504034217 58 191 0.0 0.0 0.00 0.00 0.00 62 1005.6
20260504033657 58 210 1.0 2.0 0.00 0.00 0.00 63 1005.6
20260504033133 58 208 0.0 0.0 0.00 0.00 0.00 63 1005.5
20260504032617 58 190 0.0 0.0 0.00 0.00 0.00 62 1005.6
20260504032057 59 180 1.0 2.0 0.00 0.00 0.00 63 1005.7
20260504031534 59 220 0.0 1.0 0.00 0.00 0.00 62 1005.9
20260504031016 58 220 2.0 3.0 0.00 0.00 0.00 63 1005.9
20260504030457 58 229 2.0 3.0 0.00 0.00 0.00 63 1006.1
20260504025933 58 189 0.0 0.0 0.00 0.00 0.00 63 1005.8
20260504025417 58 200 0.0 1.0 0.00 0.00 0.00 64 1005.9
20260504024856 59 200 1.0 2.0 0.00 0.00 0.00 61 1006.1
20260504024333 59 219 2.0 4.0 0.00 0.00 0.00 61 1005.8
20260504023816 59 230 2.0 3.0 0.00 0.00 0.00 61 1005.9
20260504023256 59 221 1.0 3.0 0.00 0.00 0.00 61 1005.8
20260504022737 59 211 2.0 3.0 0.00 0.00 0.00 61 1006.0
20260504022133 59 234 1.0 2.0 0.00 0.00 0.00 63 1005.9
20260504021534 58 220 3.0 4.0 0.00 0.00 0.00 63 1005.9
20260504020934 58 191 1.0 2.0 0.00 0.00 0.00 64 1005.9
20260504020333 58 187 0.0 0.0 0.00 0.00 0.00 64 1005.9
20260504015734 58 186 2.0 2.0 0.00 0.00 0.00 64 1005.9
20260504015134 59 186 0.0 1.0 0.00 0.00 0.00 64 1006.0
20260504014533 59 186 1.0 1.0 0.00 0.00 0.00 63 1006.0
20260504013934 59 186 0.0 1.0 0.00 0.00 0.00 62 1005.7
20260504013334 59 186 0.0 0.0 0.00 0.00 0.00 61 1005.6
20260504012734 60 219 0.0 1.0 0.00 0.00 0.00 60 1005.8
20260504012232 60 201 0.0 0.0 0.00 0.00 0.00 60 1005.6
20260504011713 60 192 0.0 0.0 0.00 0.00 0.00 59 1005.5
20260504011153 61 220 0.0 1.0 0.00 0.00 0.00 60 1005.6
20260504010634 61 160 1.0 1.0 0.00 0.00 0.00 60 1005.5
20260504010129 61 258 3.0 4.0 0.00 0.00 0.00 59 1005.5
20260504005609 61 216 0.0 1.0 0.00 0.00 0.00 60 1005.5
20260504005049 61 206 1.0 2.0 0.00 0.00 0.00 60 1005.6
20260504004529 61 183 0.0 0.0 0.00 0.00 0.00 59 1005.6
20260504004009 61 227 2.0 3.0 0.00 0.00 0.00 60 1005.5
20260504003449 61 227 0.0 1.0 0.00 0.00 0.00 60 1005.7
20260504002933 62 209 1.0 2.0 0.00 0.00 0.00 59 1005.6
20260504002334 62 238 3.0 5.0 0.00 0.00 0.00 59 1005.7
20260504001733 62 214 6.0 8.0 0.00 0.00 0.00 57 1005.7
20260504001133 63 217 2.0 2.0 0.00 0.00 0.00 58 1005.5
20260504000534 63 192 6.0 8.0 0.00 0.00 0.00 55 1005.4
20260504000025 63 241 3.0 6.0 0.00 0.00 0.00 57 1005.6
20260503235506 63 216 5.0 5.0 0.00 0.00 0.00 56 1005.5
20260503234934 63 229 3.0 4.0 0.00 0.00 0.00 57 1005.7
20260503234334 63 221 3.0 4.0 0.00 0.00 0.00 54 1005.7
20260503233833 63 197 4.0 6.0 0.00 0.00 0.00 54 1005.9
20260503233313 63 207 3.0 6.0 0.00 0.00 0.00 55 1006.0
20260503232753 63 231 3.0 4.0 0.00 0.00 0.00 55 1006.3
20260503232233 63 196 5.0 6.0 0.00 0.00 0.00 54 1006.4
20260503231729 63 224 2.0 3.0 0.00 0.00 0.00 55 1006.7
20260503231209 63 215 10.0 14.0 0.00 0.00 0.00 54 1006.7
20260503230649 63 228 4.0 5.0 0.00 0.00 0.00 56 1006.5
20260503230129 64 230 1.0 2.0 0.00 0.00 0.00 54 1006.2
20260503225610 64 229 2.0 3.0 0.00 0.00 0.00 55 1006.4
20260503225049 64 216 8.0 10.0 0.00 0.00 0.00 54 1006.6
20260503224010 63 191 5.0 6.0 0.00 0.00 0.00 54 1007.0
20260503222933 63 233 3.0 4.0 0.00 0.00 0.00 56 1006.9
20260503222425 63 227 3.0 4.0 0.00 0.00 0.00 59 1007.0
20260503221906 63 229 6.0 9.0 0.00 0.00 0.00 56 1007.1
20260503221345 63 222 5.0 6.0 0.00 0.00 0.00 55 1006.9
20260503220833 62 241 4.0 5.0 0.00 0.00 0.00 58 1006.9
20260503220233 62 221 8.0 10.0 0.00 0.00 0.00 57 1007.1
20260503215729 62 213 2.0 3.0 0.00 0.00 0.00 55 1006.7
20260503215210 62 234 9.0 11.0 0.00 0.00 0.00 54 1006.7
20260503214649 62 169 8.0 12.0 0.00 0.00 0.00 55 1006.6
20260503214129 62 220 4.0 5.0 0.00 0.00 0.00 56 1006.3
20260503213610 62 268 3.0 8.0 0.00 0.00 0.00 57 1006.6
20260503213049 62 203 7.0 10.0 0.00 0.00 0.00 55 1006.7
20260503212529 63 192 5.0 6.0 0.00 0.00 0.00 58 1007.1
20260503212009 63 238 9.0 12.0 0.00 0.00 0.00 57 1007.3
20260503211449 63 188 9.0 13.0 0.00 0.00 0.00 55 1007.3
20260503210929 63 194 3.0 4.0 0.00 0.00 0.00 57 1007.2
20260503210410 62 215 5.0 8.0 0.00 0.00 0.00 56 1007.4
20260503205849 62 218 9.0 11.0 0.00 0.00 0.00 56 1007.5
20260503205329 62 208 4.0 5.0 0.00 0.00 0.00 58 1007.6
20260503204809 62 206 5.0 6.0 0.00 0.00 0.00 55 1007.9
20260503204249 62 248 8.0 10.0 0.00 0.00 0.00 55 1007.7
20260503203730 61 221 8.0 11.0 0.00 0.00 0.00 55 1008.1
20260503203210 61 199 3.0 4.0 0.00 0.00 0.00 59 1008.1
20260503202649 61 164 6.0 11.0 0.00 0.00 0.00 58 1008.3
20260503202129 61 240 5.0 6.0 0.00 0.00 0.00 59 1008.2
20260503201610 61 229 5.0 6.0 0.00 0.00 0.00 57 1007.8
20260503201049 61 150 4.0 8.0 0.00 0.00 0.00 54 1007.7
20260503200529 61 236 4.0 6.0 0.00 0.00 0.00 58 1008.4
20260503200011 61 219 4.0 4.0 0.00 0.00 0.00 54 1008.8
20260503195449 61 218 2.0 4.0 0.00 0.00 0.00 57 1009.3
20260503194929 61 211 11.0 13.0 0.00 0.00 0.00 54 1009.6
20260503194410 60 213 5.0 10.0 0.00 0.00 0.00 55 1009.5
20260503193849 60 207 5.0 8.0 0.00 0.00 0.00 54 1009.6
20260503193329 60 242 10.0 11.0 0.00 0.00 0.00 54 1009.8
20260503192810 60 214 7.0 10.0 0.00 0.00 0.00 56 1010.0
20260503192249 60 207 4.0 6.0 0.00 0.00 0.00 56 1010.4
20260503191730 60 204 10.0 13.0 0.00 0.00 0.00 57 1010.2
20260503191210 60 215 10.0 11.0 0.00 0.00 0.00 56 1010.1
20260503190649 60 193 6.0 8.0 0.00 0.00 0.00 54 1010.3
20260503190129 61 229 8.0 9.0 0.00 0.00 0.00 56 1010.0
20260503185610 61 228 12.0 14.0 0.00 0.00 0.00 58 1010.1
20260503185050 62 248 6.0 11.0 0.00 0.00 0.00 61 1010.1
20260503184530 61 227 11.0 12.0 0.00 0.00 0.00 60 1010.3
20260503183953 61 231 4.0 5.0 0.00 0.00 0.00 56 1010.4
20260503183433 61 229 7.0 11.0 0.00 0.00 0.00 57 1010.9
20260503182913 61 214 6.0 9.0 0.00 0.00 0.00 57 1010.5
20260503182353 61 214 5.0 6.0 0.00 0.00 0.00 58 1010.4
20260503181833 61 230 9.0 12.0 0.00 0.00 0.00 58 1011.0
20260503181314 61 174 6.0 9.0 0.00 0.00 0.00 56 1011.0
20260503180753 61 207 12.0 17.0 0.00 0.00 0.00 60 1010.8
20260503180234 61 207 5.0 6.0 0.00 0.00 0.00 59 1011.1
20260503175714 61 229 5.0 11.0 0.00 0.00 0.00 60 1011.1
20260503175154 61 200 9.0 15.0 0.00 0.00 0.00 56 1011.4
20260503174633 61 223 12.0 15.0 0.00 0.00 0.00 58 1011.5
20260503174113 61 161 12.0 15.0 0.00 0.00 0.00 57 1011.9
20260503173553 61 224 5.0 5.0 0.00 0.00 0.00 62 1011.6
20260503173033 60 133 5.0 9.0 0.00 0.00 0.00 58 1012.0
20260503172514 59 223 6.0 8.0 0.00 0.00 0.00 60 1012.3
20260503171954 60 210 12.0 15.0 0.00 0.00 0.00 63 1012.6
20260503171433 60 208 4.0 5.0 0.00 0.00 0.00 58 1012.5
20260503170914 60 189 5.0 6.0 0.00 0.00 0.00 59 1012.6
20260503170354 59 219 7.0 9.0 0.00 0.00 0.00 64 1012.5
20260503150634 55 263 5.0 6.0 0.00 0.00 0.00 66 1014.1
20260503150115 55 229 6.0 8.0 0.00 0.00 0.00 63 1014.2
20260503131122 50 211 4.0 5.0 0.00 0.00 0.00 77 1014.5
20260503130602 50 217 2.0 2.0 0.00 0.00 0.00 79 1014.4
20260503120133 44 226 3.0 3.0 0.00 0.00 0.00 82 1014.1
20260503110733 42 217 1.0 2.0 0.00 0.00 0.00 78 1014.2
20260503110134 42 243 0.0 1.0 0.00 0.00 0.00 78 1014.0
20260503100233 41 229 1.0 2.0 0.00 0.00 0.00 80 1014.1
20260503090410 36 219 0.0 0.0 0.00 0.00 0.00 99 1014.1
20260503080534 35 243 0.0 0.0 0.00 0.00 0.00 99 1014.1
20260503072933 35 243 0.0 0.0 0.00 0.00 0.00 99 1013.9
20260503072333 36 243 0.0 0.0 0.00 0.00 0.00 99 1013.9
20260503071733 36 243 0.0 0.0 0.00 0.00 0.00 99 1014.3
20260503071133 36 243 0.0 0.0 0.00 0.00 0.00 99 1014.1
20260503070533 36 243 0.0 0.0 0.00 0.00 0.00 99 1014.3